Year,Month,Day,Hour,Minute,Value (Times are PST for temperature in C)
2017,07,16,00,00,14.80
2017,07,16,00,01,14.80
2017,07,16,00,02,14.80
2017,07,16,00,03,14.70
2017,07,16,00,04,14.70
2017,07,16,00,05,14.70
2017,07,16,00,06,14.70
2017,07,16,00,07,14.70
2017,07,16,00,08,14.70
2017,07,16,00,09,14.70
2017,07,16,00,10,14.80
2017,07,16,00,11,14.80
2017,07,16,00,12,14.80
2017,07,16,00,13,14.80
2017,07,16,00,14,14.80
2017,07,16,00,15,14.80
2017,07,16,00,16,14.90
2017,07,16,00,17,14.90
2017,07,16,00,18,14.80
2017,07,16,00,19,14.90
2017,07,16,00,20,14.90
2017,07,16,00,21,14.80
2017,07,16,00,22,14.70
2017,07,16,00,23,14.70
2017,07,16,00,24,14.70
2017,07,16,00,25,14.70
2017,07,16,00,26,14.70
2017,07,16,00,27,14.70
2017,07,16,00,28,14.70
2017,07,16,00,29,14.70
2017,07,16,00,30,14.70
2017,07,16,00,31,14.70
2017,07,16,00,32,14.70
2017,07,16,00,33,14.60
2017,07,16,00,34,14.70
2017,07,16,00,35,14.70
2017,07,16,00,36,14.70
2017,07,16,00,37,14.70
2017,07,16,00,38,14.60
2017,07,16,00,39,14.60
2017,07,16,00,40,14.70
2017,07,16,00,41,14.70
2017,07,16,00,42,14.70
2017,07,16,00,43,14.70
2017,07,16,00,44,14.70
2017,07,16,00,45,14.70
2017,07,16,00,46,14.70
2017,07,16,00,47,14.70
2017,07,16,00,48,14.70
2017,07,16,00,49,14.70
2017,07,16,00,50,14.70
2017,07,16,00,51,14.70
2017,07,16,00,52,14.60
2017,07,16,00,53,14.60
2017,07,16,00,54,14.60
2017,07,16,00,55,14.50
2017,07,16,00,56,14.50
2017,07,16,00,57,14.50
2017,07,16,00,58,14.50
2017,07,16,00,59,14.50
2017,07,16,01,00,14.50
2017,07,16,01,01,14.50
2017,07,16,01,02,14.40
2017,07,16,01,03,14.40
2017,07,16,01,04,14.50
2017,07,16,01,05,14.50
2017,07,16,01,06,14.50
2017,07,16,01,07,14.40
2017,07,16,01,08,14.40
2017,07,16,01,09,14.40
2017,07,16,01,10,14.40
2017,07,16,01,11,14.40
2017,07,16,01,12,14.40
2017,07,16,01,13,14.40
2017,07,16,01,14,14.40
2017,07,16,01,15,14.30
2017,07,16,01,16,14.30
2017,07,16,01,17,14.30
2017,07,16,01,18,14.30
2017,07,16,01,19,14.30
2017,07,16,01,20,14.30
2017,07,16,01,21,14.30
2017,07,16,01,22,14.30
2017,07,16,01,23,14.30
2017,07,16,01,24,14.30
2017,07,16,01,25,14.30
2017,07,16,01,26,14.30
2017,07,16,01,27,14.30
2017,07,16,01,28,14.30
2017,07,16,01,29,14.30
2017,07,16,01,30,14.30
2017,07,16,01,31,14.30
2017,07,16,01,32,14.30
2017,07,16,01,33,14.30
2017,07,16,01,34,14.30
2017,07,16,01,35,14.40
2017,07,16,01,36,14.30
2017,07,16,01,37,14.30
2017,07,16,01,38,14.30
2017,07,16,01,39,14.30
2017,07,16,01,40,14.30
2017,07,16,01,41,14.30
2017,07,16,01,42,14.30
2017,07,16,01,43,14.30
2017,07,16,01,44,14.30
2017,07,16,01,45,14.30
2017,07,16,01,46,14.30
2017,07,16,01,47,14.30
2017,07,16,01,48,14.30
2017,07,16,01,49,14.30
2017,07,16,01,50,14.30
2017,07,16,01,51,14.30
2017,07,16,01,52,14.20
2017,07,16,01,53,14.20
2017,07,16,01,54,14.20
2017,07,16,01,55,14.20
2017,07,16,01,56,14.20
2017,07,16,01,57,14.20
2017,07,16,01,58,14.20
2017,07,16,01,59,14.20
2017,07,16,02,00,14.20
2017,07,16,02,01,14.20
2017,07,16,02,02,14.20
2017,07,16,02,03,14.20
2017,07,16,02,04,14.20
2017,07,16,02,05,14.20
2017,07,16,02,06,14.20
2017,07,16,02,07,14.20
2017,07,16,02,08,14.20
2017,07,16,02,09,14.20
2017,07,16,02,10,14.20
2017,07,16,02,11,14.20
2017,07,16,02,12,14.20
2017,07,16,02,13,14.20
2017,07,16,02,14,14.20
2017,07,16,02,15,14.10
2017,07,16,02,16,14.10
2017,07,16,02,17,14.10
2017,07,16,02,18,14.10
2017,07,16,02,19,14.10
2017,07,16,02,20,14.10
2017,07,16,02,21,14.20
2017,07,16,02,22,14.20
2017,07,16,02,23,14.20
2017,07,16,02,24,14.20
2017,07,16,02,25,14.20
2017,07,16,02,26,14.20
2017,07,16,02,27,14.20
2017,07,16,02,28,14.20
2017,07,16,02,29,14.20
2017,07,16,02,30,14.20
2017,07,16,02,31,14.20
2017,07,16,02,32,14.20
2017,07,16,02,33,14.20
2017,07,16,02,34,14.20
2017,07,16,02,35,14.20
2017,07,16,02,36,14.20
2017,07,16,02,37,14.20
2017,07,16,02,38,14.20
2017,07,16,02,39,14.20
2017,07,16,02,40,14.20
2017,07,16,02,41,14.20
2017,07,16,02,42,14.20
2017,07,16,02,43,14.20
2017,07,16,02,44,14.20
2017,07,16,02,45,14.20
2017,07,16,02,46,14.10
2017,07,16,02,47,14.10
2017,07,16,02,48,14.10
2017,07,16,02,49,14.10
2017,07,16,02,50,14.10
2017,07,16,02,51,14.10
2017,07,16,02,52,14.10
2017,07,16,02,53,14.10
2017,07,16,02,54,14.10
2017,07,16,02,55,14.10
2017,07,16,02,56,14.10
2017,07,16,02,57,14.10
2017,07,16,02,58,14.10
2017,07,16,02,59,14.10
2017,07,16,03,00,14.10
2017,07,16,03,01,14.10
2017,07,16,03,02,14.00
2017,07,16,03,03,14.00
2017,07,16,03,04,14.00
2017,07,16,03,05,14.00
2017,07,16,03,06,14.10
2017,07,16,03,07,14.10
2017,07,16,03,08,14.10
2017,07,16,03,09,14.00
2017,07,16,03,10,14.00
2017,07,16,03,11,13.90
2017,07,16,03,12,13.90
2017,07,16,03,13,13.90
2017,07,16,03,14,13.90
2017,07,16,03,15,13.90
2017,07,16,03,16,13.90
2017,07,16,03,17,13.90
2017,07,16,03,18,13.90
2017,07,16,03,19,13.90
2017,07,16,03,20,13.90
2017,07,16,03,21,13.90
2017,07,16,03,22,13.90
2017,07,16,03,23,13.90
2017,07,16,03,24,13.90
2017,07,16,03,25,13.90
2017,07,16,03,26,13.90
2017,07,16,03,27,13.80
2017,07,16,03,28,13.80
2017,07,16,03,29,13.80
2017,07,16,03,30,13.80
2017,07,16,03,31,13.80
2017,07,16,03,32,13.80
2017,07,16,03,33,13.80
2017,07,16,03,34,13.80
2017,07,16,03,35,13.80
2017,07,16,03,36,13.80
2017,07,16,03,37,13.90
2017,07,16,03,38,13.90
2017,07,16,03,39,13.90
2017,07,16,03,40,13.90
2017,07,16,03,41,13.80
2017,07,16,03,42,13.80
2017,07,16,03,43,13.80
2017,07,16,03,44,13.80
2017,07,16,03,45,13.80
2017,07,16,03,46,13.80
2017,07,16,03,47,13.80
2017,07,16,03,48,13.80
2017,07,16,03,49,13.80
2017,07,16,03,50,13.80
2017,07,16,03,51,13.80
2017,07,16,03,52,13.80
2017,07,16,03,53,13.80
2017,07,16,03,54,13.80
2017,07,16,03,55,13.80
2017,07,16,03,56,13.80
2017,07,16,03,57,13.80
2017,07,16,03,58,13.80
2017,07,16,03,59,13.80
2017,07,16,04,00,13.80
2017,07,16,04,01,13.80
2017,07,16,04,02,13.80
2017,07,16,04,03,13.80
2017,07,16,04,04,13.80
2017,07,16,04,05,13.70
2017,07,16,04,06,13.70
2017,07,16,04,07,13.70
2017,07,16,04,08,13.70
2017,07,16,04,09,13.70
2017,07,16,04,10,13.70
2017,07,16,04,11,13.70
2017,07,16,04,12,13.70
2017,07,16,04,13,13.70
2017,07,16,04,14,13.70
2017,07,16,04,15,13.70
2017,07,16,04,16,13.70
2017,07,16,04,17,13.70
2017,07,16,04,18,13.70
2017,07,16,04,19,13.70
2017,07,16,04,20,13.70
2017,07,16,04,21,13.60
2017,07,16,04,22,13.60
2017,07,16,04,23,13.60
2017,07,16,04,24,13.60
2017,07,16,04,25,13.60
2017,07,16,04,26,13.50
2017,07,16,04,27,13.50
2017,07,16,04,28,13.50
2017,07,16,04,29,13.40
2017,07,16,04,30,13.40
2017,07,16,04,31,13.40
2017,07,16,04,32,13.40
2017,07,16,04,33,13.30
2017,07,16,04,34,13.30
2017,07,16,04,35,13.30
2017,07,16,04,36,13.30
2017,07,16,04,37,13.20
2017,07,16,04,38,13.20
2017,07,16,04,39,13.20
2017,07,16,04,40,13.20
2017,07,16,04,41,13.20
2017,07,16,04,42,13.20
2017,07,16,04,43,13.20
2017,07,16,04,44,13.20
2017,07,16,04,45,13.10
2017,07,16,04,46,13.10
2017,07,16,04,47,13.10
2017,07,16,04,48,13.10
2017,07,16,04,49,13.00
2017,07,16,04,50,13.00
2017,07,16,04,51,13.00
2017,07,16,04,52,13.00
2017,07,16,04,53,13.00
2017,07,16,04,54,13.00
2017,07,16,04,55,13.00
2017,07,16,04,56,13.00
2017,07,16,04,57,13.00
2017,07,16,04,58,13.00
2017,07,16,04,59,13.00
2017,07,16,05,00,13.00
2017,07,16,05,01,13.10
2017,07,16,05,02,13.10
2017,07,16,05,03,13.10
2017,07,16,05,04,13.10
2017,07,16,05,05,13.10
2017,07,16,05,06,13.10
2017,07,16,05,07,13.10
2017,07,16,05,08,13.00
2017,07,16,05,09,13.00
2017,07,16,05,10,13.00
2017,07,16,05,11,12.90
2017,07,16,05,12,12.90
2017,07,16,05,13,12.90
2017,07,16,05,14,12.80
2017,07,16,05,15,12.80
2017,07,16,05,16,12.80
2017,07,16,05,17,12.80
2017,07,16,05,18,12.80
2017,07,16,05,19,12.80
2017,07,16,05,20,12.70
2017,07,16,05,21,12.70
2017,07,16,05,22,12.70
2017,07,16,05,23,12.70
2017,07,16,05,24,12.70
2017,07,16,05,25,12.70
2017,07,16,05,26,12.70
2017,07,16,05,27,12.70
2017,07,16,05,28,12.70
2017,07,16,05,29,12.60
2017,07,16,05,30,12.60
2017,07,16,05,31,12.60
2017,07,16,05,32,12.50
2017,07,16,05,33,12.50
2017,07,16,05,34,12.50
2017,07,16,05,35,12.40
2017,07,16,05,36,12.40
2017,07,16,05,37,12.40
2017,07,16,05,38,12.40
2017,07,16,05,39,12.40
2017,07,16,05,40,12.40
2017,07,16,05,41,12.40
2017,07,16,05,42,12.40
2017,07,16,05,43,12.40
2017,07,16,05,44,12.40
2017,07,16,05,45,12.40
2017,07,16,05,46,12.40
2017,07,16,05,47,12.40
2017,07,16,05,48,12.40
2017,07,16,05,49,12.40
2017,07,16,05,50,12.40
2017,07,16,05,51,12.40
2017,07,16,05,52,12.40
2017,07,16,05,53,12.40
2017,07,16,05,54,12.40
2017,07,16,05,55,12.40
2017,07,16,05,56,12.40
2017,07,16,05,57,12.40
2017,07,16,05,58,12.40
2017,07,16,05,59,12.40
2017,07,16,06,00,12.50
2017,07,16,06,01,12.50
2017,07,16,06,02,12.50
2017,07,16,06,03,12.50
2017,07,16,06,04,12.50
2017,07,16,06,05,12.50
2017,07,16,06,06,12.50
2017,07,16,06,07,12.50
2017,07,16,06,08,12.60
2017,07,16,06,09,12.60
2017,07,16,06,10,12.60
2017,07,16,06,11,12.60
2017,07,16,06,12,12.60
2017,07,16,06,13,12.60
2017,07,16,06,14,12.60
2017,07,16,06,15,12.70
2017,07,16,06,16,12.70
2017,07,16,06,17,12.70
2017,07,16,06,18,12.70
2017,07,16,06,19,12.80
2017,07,16,06,20,12.80
2017,07,16,06,21,12.80
2017,07,16,06,22,12.80
2017,07,16,06,23,12.90
2017,07,16,06,24,13.00
2017,07,16,06,25,13.00
2017,07,16,06,26,13.10
2017,07,16,06,27,13.20
2017,07,16,06,28,13.30
2017,07,16,06,29,13.30
2017,07,16,06,30,13.40
2017,07,16,06,31,13.50
2017,07,16,06,32,13.50
2017,07,16,06,33,13.50
2017,07,16,06,34,13.50
2017,07,16,06,35,13.60
2017,07,16,06,36,13.70
2017,07,16,06,37,13.70
2017,07,16,06,38,13.80
2017,07,16,06,39,13.80
2017,07,16,06,40,13.90
2017,07,16,06,41,13.90
2017,07,16,06,42,13.90
2017,07,16,06,43,13.90
2017,07,16,06,44,14.00
2017,07,16,06,45,14.00
2017,07,16,06,46,14.10
2017,07,16,06,47,14.10
2017,07,16,06,48,14.10
2017,07,16,06,49,14.10
2017,07,16,06,50,14.10
2017,07,16,06,51,14.10
2017,07,16,06,52,14.20
2017,07,16,06,53,14.20
2017,07,16,06,54,14.20
2017,07,16,06,55,14.20
2017,07,16,06,56,14.20
2017,07,16,06,57,14.20
2017,07,16,06,58,14.20
2017,07,16,06,59,14.20
2017,07,16,07,00,14.20
2017,07,16,07,01,14.20
2017,07,16,07,02,14.30
2017,07,16,07,03,14.30
2017,07,16,07,04,14.30
2017,07,16,07,05,14.30
2017,07,16,07,06,14.40
2017,07,16,07,07,14.40
2017,07,16,07,08,14.40
2017,07,16,07,09,14.40
2017,07,16,07,10,14.40
2017,07,16,07,11,14.40
2017,07,16,07,12,14.50
2017,07,16,07,13,14.50
2017,07,16,07,14,14.50
2017,07,16,07,15,14.60
2017,07,16,07,16,14.60
2017,07,16,07,17,14.60
2017,07,16,07,18,14.60
2017,07,16,07,19,14.70
2017,07,16,07,20,14.70
2017,07,16,07,21,14.70
2017,07,16,07,22,14.70
2017,07,16,07,23,14.70
2017,07,16,07,24,14.70
2017,07,16,07,25,14.80
2017,07,16,07,26,14.80
2017,07,16,07,27,14.80
2017,07,16,07,28,14.90
2017,07,16,07,29,14.90
2017,07,16,07,30,15.00
2017,07,16,07,31,15.00
2017,07,16,07,32,15.00
2017,07,16,07,33,15.00
2017,07,16,07,34,15.00
2017,07,16,07,35,15.00
2017,07,16,07,36,15.00
2017,07,16,07,37,15.00
2017,07,16,07,38,15.00
2017,07,16,07,39,15.00
2017,07,16,07,40,15.00
2017,07,16,07,41,15.00
2017,07,16,07,42,15.00
2017,07,16,07,43,15.00
2017,07,16,07,44,15.10
2017,07,16,07,45,15.10
2017,07,16,07,46,15.10
2017,07,16,07,47,15.10
2017,07,16,07,48,15.10
2017,07,16,07,49,15.10
2017,07,16,07,50,15.10
2017,07,16,07,51,15.10
2017,07,16,07,52,15.10
2017,07,16,07,53,15.20
2017,07,16,07,54,15.10
2017,07,16,07,55,15.10
2017,07,16,07,56,15.10
2017,07,16,07,57,15.20
2017,07,16,07,58,15.20
2017,07,16,07,59,15.20
2017,07,16,08,00,15.30
2017,07,16,08,01,15.30
2017,07,16,08,02,15.30
2017,07,16,08,03,15.30
2017,07,16,08,04,15.30
2017,07,16,08,05,15.30
2017,07,16,08,06,15.30
2017,07,16,08,07,15.30
2017,07,16,08,08,15.30
2017,07,16,08,09,15.40
2017,07,16,08,10,15.40
2017,07,16,08,11,15.40
2017,07,16,08,12,15.40
2017,07,16,08,13,15.50
2017,07,16,08,14,15.50
2017,07,16,08,15,15.50
2017,07,16,08,16,15.60
2017,07,16,08,17,15.60
2017,07,16,08,18,15.60
2017,07,16,08,19,15.60
2017,07,16,08,20,15.60
2017,07,16,08,21,15.70
2017,07,16,08,22,15.70
2017,07,16,08,23,15.70
2017,07,16,08,24,15.70
2017,07,16,08,25,15.80
2017,07,16,08,26,15.80
2017,07,16,08,27,15.80
2017,07,16,08,28,15.80
2017,07,16,08,29,15.90
2017,07,16,08,30,15.90
2017,07,16,08,31,16.00
2017,07,16,08,32,16.00
2017,07,16,08,33,16.10
2017,07,16,08,34,16.10
2017,07,16,08,35,16.10
2017,07,16,08,36,16.20
2017,07,16,08,37,16.20
2017,07,16,08,38,16.20
2017,07,16,08,39,16.20
2017,07,16,08,40,16.30
2017,07,16,08,41,16.30
2017,07,16,08,42,16.40
2017,07,16,08,43,16.40
2017,07,16,08,44,16.40
2017,07,16,08,45,16.50
2017,07,16,08,46,16.50
2017,07,16,08,47,16.50
2017,07,16,08,48,16.50
2017,07,16,08,49,16.50
2017,07,16,08,50,16.50
2017,07,16,08,51,16.50
2017,07,16,08,52,16.60
2017,07,16,08,53,16.60
2017,07,16,08,54,16.60
2017,07,16,08,55,16.70
2017,07,16,08,56,16.70
2017,07,16,08,57,16.80
2017,07,16,08,58,16.80
2017,07,16,08,59,16.80
2017,07,16,09,00,16.90
2017,07,16,09,01,16.90
2017,07,16,09,02,17.00
2017,07,16,09,03,17.00
2017,07,16,09,04,17.00
2017,07,16,09,05,17.00
2017,07,16,09,06,17.00
2017,07,16,09,07,17.00
2017,07,16,09,08,17.00
2017,07,16,09,09,17.00
2017,07,16,09,10,17.10
2017,07,16,09,11,17.10
2017,07,16,09,12,17.10
2017,07,16,09,13,17.10
2017,07,16,09,14,17.10
2017,07,16,09,15,17.10
2017,07,16,09,16,17.20
2017,07,16,09,17,17.20
2017,07,16,09,18,17.20
2017,07,16,09,19,17.20
2017,07,16,09,20,17.30
2017,07,16,09,21,17.30
2017,07,16,09,22,17.30
2017,07,16,09,23,17.30
2017,07,16,09,24,17.40
2017,07,16,09,25,17.40
2017,07,16,09,26,17.40
2017,07,16,09,27,17.40
2017,07,16,09,28,17.50
2017,07,16,09,29,17.50
2017,07,16,09,30,17.60
2017,07,16,09,31,17.60
2017,07,16,09,32,17.70
2017,07,16,09,33,17.70
2017,07,16,09,34,17.70
2017,07,16,09,35,17.70
2017,07,16,09,36,17.70
2017,07,16,09,37,17.70
2017,07,16,09,38,17.70
2017,07,16,09,39,17.70
2017,07,16,09,40,17.70
2017,07,16,09,41,17.70
2017,07,16,09,42,17.70
2017,07,16,09,43,17.80
2017,07,16,09,44,17.80
2017,07,16,09,45,17.90
2017,07,16,09,46,17.90
2017,07,16,09,47,17.90
2017,07,16,09,48,18.00
2017,07,16,09,49,18.00
2017,07,16,09,50,18.10
2017,07,16,09,51,18.20
2017,07,16,09,52,18.20
2017,07,16,09,53,18.20
2017,07,16,09,54,18.20
2017,07,16,09,55,18.20
2017,07,16,09,56,18.20
2017,07,16,09,57,18.20
2017,07,16,09,58,18.20
2017,07,16,09,59,18.20
2017,07,16,10,00,18.30
2017,07,16,10,01,18.30
2017,07,16,10,02,18.30
2017,07,16,10,03,18.20
2017,07,16,10,04,18.20
2017,07,16,10,05,18.20
2017,07,16,10,06,18.20
2017,07,16,10,07,18.20
2017,07,16,10,08,18.10
2017,07,16,10,09,18.10
2017,07,16,10,10,18.00
2017,07,16,10,11,17.90
2017,07,16,10,12,17.90
2017,07,16,10,13,17.90
2017,07,16,10,14,17.90
2017,07,16,10,15,17.90
2017,07,16,10,16,17.90
2017,07,16,10,17,17.90
2017,07,16,10,18,17.90
2017,07,16,10,19,17.90
2017,07,16,10,20,17.90
2017,07,16,10,21,18.00
2017,07,16,10,22,18.00
2017,07,16,10,23,18.00
2017,07,16,10,24,18.00
2017,07,16,10,25,18.00
2017,07,16,10,26,18.00
2017,07,16,10,27,18.00
2017,07,16,10,28,18.10
2017,07,16,10,29,18.10
2017,07,16,10,30,18.20
2017,07,16,10,31,18.30
2017,07,16,10,32,18.30
2017,07,16,10,33,18.30
2017,07,16,10,34,18.30
2017,07,16,10,35,18.40
2017,07,16,10,36,18.60
2017,07,16,10,37,18.70
2017,07,16,10,38,18.80
2017,07,16,10,39,18.90
2017,07,16,10,40,18.90
2017,07,16,10,41,18.80
2017,07,16,10,42,18.80
2017,07,16,10,43,18.80
2017,07,16,10,44,18.70
2017,07,16,10,45,18.60
2017,07,16,10,46,18.60
2017,07,16,10,47,18.50
2017,07,16,10,48,18.40
2017,07,16,10,49,18.30
2017,07,16,10,50,18.30
2017,07,16,10,51,18.30
2017,07,16,10,52,18.30
2017,07,16,10,53,18.30
2017,07,16,10,54,18.30
2017,07,16,10,55,18.20
2017,07,16,10,56,18.20
2017,07,16,10,57,18.20
2017,07,16,10,58,18.10
2017,07,16,10,59,18.10
2017,07,16,11,00,18.10
2017,07,16,11,01,18.20
2017,07,16,11,02,18.20
2017,07,16,11,03,18.20
2017,07,16,11,04,18.20
2017,07,16,11,05,18.30
2017,07,16,11,06,18.30
2017,07,16,11,07,18.40
2017,07,16,11,08,18.50
2017,07,16,11,09,18.50
2017,07,16,11,10,18.60
2017,07,16,11,11,18.60
2017,07,16,11,12,18.60
2017,07,16,11,13,18.60
2017,07,16,11,14,18.50
2017,07,16,11,15,18.40
2017,07,16,11,16,18.40
2017,07,16,11,17,18.30
2017,07,16,11,18,18.20
2017,07,16,11,19,18.20
2017,07,16,11,20,18.20
2017,07,16,11,21,18.10
2017,07,16,11,22,18.10
2017,07,16,11,23,18.10
2017,07,16,11,24,18.10
2017,07,16,11,25,18.10
2017,07,16,11,26,18.10
2017,07,16,11,27,18.20
2017,07,16,11,28,18.20
2017,07,16,11,29,18.20
2017,07,16,11,30,18.20
2017,07,16,11,31,18.20
2017,07,16,11,32,18.20
2017,07,16,11,33,18.30
2017,07,16,11,34,18.30
2017,07,16,11,35,18.30
2017,07,16,11,36,18.30
2017,07,16,11,37,18.30
2017,07,16,11,38,18.40
2017,07,16,11,39,18.40
2017,07,16,11,40,18.50
2017,07,16,11,41,18.50
2017,07,16,11,42,18.60
2017,07,16,11,43,18.60
2017,07,16,11,44,18.60
2017,07,16,11,45,18.60
2017,07,16,11,46,18.60
2017,07,16,11,47,18.60
2017,07,16,11,48,18.70
2017,07,16,11,49,18.70
2017,07,16,11,50,18.80
2017,07,16,11,51,18.80
2017,07,16,11,52,18.70
2017,07,16,11,53,18.70
2017,07,16,11,54,18.70
2017,07,16,11,55,18.70
2017,07,16,11,56,18.60
2017,07,16,11,57,18.70
2017,07,16,11,58,18.70
2017,07,16,11,59,18.80
2017,07,16,12,00,18.80
2017,07,16,12,01,18.80
2017,07,16,12,02,18.80
2017,07,16,12,03,18.80
2017,07,16,12,04,18.90
2017,07,16,12,05,18.90
2017,07,16,12,06,18.80
2017,07,16,12,07,18.80
2017,07,16,12,08,18.80
2017,07,16,12,09,18.80
2017,07,16,12,10,18.80
2017,07,16,12,11,18.90
2017,07,16,12,12,18.80
2017,07,16,12,13,18.80
2017,07,16,12,14,18.80
2017,07,16,12,15,18.80
2017,07,16,12,16,18.80
2017,07,16,12,17,18.90
2017,07,16,12,18,18.90
2017,07,16,12,19,18.80
2017,07,16,12,20,18.90
2017,07,16,12,21,18.90
2017,07,16,12,22,18.90
2017,07,16,12,23,18.90
2017,07,16,12,24,18.90
2017,07,16,12,25,18.90
2017,07,16,12,26,18.90
2017,07,16,12,27,18.90
2017,07,16,12,28,18.90
2017,07,16,12,29,18.90
2017,07,16,12,30,18.90
2017,07,16,12,31,18.90
2017,07,16,12,32,18.90
2017,07,16,12,33,18.90
2017,07,16,12,34,18.90
2017,07,16,12,35,18.90
2017,07,16,12,36,18.90
2017,07,16,12,37,18.90
2017,07,16,12,38,19.00
2017,07,16,12,39,19.10
2017,07,16,12,40,19.10
2017,07,16,12,41,19.10
2017,07,16,12,42,19.10
2017,07,16,12,43,19.10
2017,07,16,12,44,19.10
2017,07,16,12,45,19.00
2017,07,16,12,46,19.00
2017,07,16,12,47,19.00
2017,07,16,12,48,19.00
2017,07,16,12,49,19.00
2017,07,16,12,50,19.00
2017,07,16,12,51,19.00
2017,07,16,12,52,19.00
2017,07,16,12,53,19.00
2017,07,16,12,54,19.00
2017,07,16,12,55,19.10
2017,07,16,12,56,19.10
2017,07,16,12,57,19.10
2017,07,16,12,58,19.10
2017,07,16,12,59,19.20
2017,07,16,13,00,19.20
2017,07,16,13,01,19.30
2017,07,16,13,02,19.30
2017,07,16,13,03,19.30
2017,07,16,13,04,19.30
2017,07,16,13,05,19.30
2017,07,16,13,06,19.30
2017,07,16,13,07,19.40
2017,07,16,13,08,19.40
2017,07,16,13,09,19.40
2017,07,16,13,10,19.50
2017,07,16,13,11,19.50
2017,07,16,13,12,19.50
2017,07,16,13,13,19.60
2017,07,16,13,14,19.60
2017,07,16,13,15,19.70
2017,07,16,13,16,19.70
2017,07,16,13,17,19.60
2017,07,16,13,18,19.70
2017,07,16,13,19,19.60
2017,07,16,13,20,19.50
2017,07,16,13,21,19.50
2017,07,16,13,22,19.60
2017,07,16,13,23,19.60
2017,07,16,13,24,19.60
2017,07,16,13,25,19.70
2017,07,16,13,26,19.80
2017,07,16,13,27,19.80
2017,07,16,13,28,19.90
2017,07,16,13,29,20.00
2017,07,16,13,30,19.90
2017,07,16,13,31,19.80
2017,07,16,13,32,19.70
2017,07,16,13,33,19.60
2017,07,16,13,34,19.60
2017,07,16,13,35,19.50
2017,07,16,13,36,19.40
2017,07,16,13,37,19.40
2017,07,16,13,38,19.40
2017,07,16,13,39,19.40
2017,07,16,13,40,19.40
2017,07,16,13,41,19.40
2017,07,16,13,42,19.50
2017,07,16,13,43,19.60
2017,07,16,13,44,19.70
2017,07,16,13,45,19.80
2017,07,16,13,46,19.90
2017,07,16,13,47,20.00
2017,07,16,13,48,20.10
2017,07,16,13,49,20.20
2017,07,16,13,50,20.20
2017,07,16,13,51,20.20
2017,07,16,13,52,20.20
2017,07,16,13,53,20.20
2017,07,16,13,54,20.10
2017,07,16,13,55,20.10
2017,07,16,13,56,20.10
2017,07,16,13,57,20.10
2017,07,16,13,58,20.10
2017,07,16,13,59,20.10
2017,07,16,14,00,20.10
2017,07,16,14,01,20.20
2017,07,16,14,02,20.20
2017,07,16,14,03,20.20
2017,07,16,14,04,20.20
2017,07,16,14,05,20.20
2017,07,16,14,06,20.30
2017,07,16,14,07,20.30
2017,07,16,14,08,20.40
2017,07,16,14,09,20.50
2017,07,16,14,10,20.50
2017,07,16,14,11,20.40
2017,07,16,14,12,20.40
2017,07,16,14,13,20.40
2017,07,16,14,14,20.40
2017,07,16,14,15,20.50
2017,07,16,14,16,20.50
2017,07,16,14,17,20.50
2017,07,16,14,18,20.60
2017,07,16,14,19,20.70
2017,07,16,14,20,20.70
2017,07,16,14,21,20.70
2017,07,16,14,22,20.80
2017,07,16,14,23,20.90
2017,07,16,14,24,21.00
2017,07,16,14,25,21.10
2017,07,16,14,26,21.20
2017,07,16,14,27,21.30
2017,07,16,14,28,21.20
2017,07,16,14,29,21.10
2017,07,16,14,30,21.00
2017,07,16,14,31,21.00
2017,07,16,14,32,21.00
2017,07,16,14,33,21.00
2017,07,16,14,34,20.90
2017,07,16,14,35,20.90
2017,07,16,14,36,20.90
2017,07,16,14,37,21.00
2017,07,16,14,38,20.90
2017,07,16,14,39,21.10
2017,07,16,14,40,21.20
2017,07,16,14,41,21.20
2017,07,16,14,42,21.30
2017,07,16,14,43,21.30
2017,07,16,14,44,21.20
2017,07,16,14,45,21.10
2017,07,16,14,46,21.10
2017,07,16,14,47,21.00
2017,07,16,14,48,21.10
2017,07,16,14,49,21.00
2017,07,16,14,50,20.80
2017,07,16,14,51,20.70
2017,07,16,14,52,20.70
2017,07,16,14,53,20.70
2017,07,16,14,54,20.60
2017,07,16,14,55,20.50
2017,07,16,14,56,20.50
2017,07,16,14,57,20.60
2017,07,16,14,58,20.60
2017,07,16,14,59,20.60
2017,07,16,15,00,20.70
2017,07,16,15,01,20.70
2017,07,16,15,02,20.80
2017,07,16,15,03,20.90
2017,07,16,15,04,20.90
2017,07,16,15,05,21.00
2017,07,16,15,06,21.00
2017,07,16,15,07,21.10
2017,07,16,15,08,21.20
2017,07,16,15,09,21.20
2017,07,16,15,10,21.30
2017,07,16,15,11,21.30
2017,07,16,15,12,21.20
2017,07,16,15,13,21.20
2017,07,16,15,14,21.10
2017,07,16,15,15,21.00
2017,07,16,15,16,21.00
2017,07,16,15,17,21.10
2017,07,16,15,18,21.10
2017,07,16,15,19,21.20
2017,07,16,15,20,21.10
2017,07,16,15,21,21.10
2017,07,16,15,22,21.10
2017,07,16,15,23,21.00
2017,07,16,15,24,20.90
2017,07,16,15,25,20.90
2017,07,16,15,26,20.90
2017,07,16,15,27,20.90
2017,07,16,15,28,21.00
2017,07,16,15,29,21.00
2017,07,16,15,30,20.90
2017,07,16,15,31,20.90
2017,07,16,15,32,20.90
2017,07,16,15,33,21.00
2017,07,16,15,34,21.10
2017,07,16,15,35,21.10
2017,07,16,15,36,21.10
2017,07,16,15,37,21.10
2017,07,16,15,38,21.10
2017,07,16,15,39,21.10
2017,07,16,15,40,21.20
2017,07,16,15,41,21.20
2017,07,16,15,42,21.30
2017,07,16,15,43,21.40
2017,07,16,15,44,21.50
2017,07,16,15,45,21.50
2017,07,16,15,46,21.40
2017,07,16,15,47,21.40
2017,07,16,15,48,21.40
2017,07,16,15,49,21.40
2017,07,16,15,50,21.40
2017,07,16,15,51,21.40
2017,07,16,15,52,21.40
2017,07,16,15,53,21.40
2017,07,16,15,54,21.40
2017,07,16,15,55,21.40
2017,07,16,15,56,21.40
2017,07,16,15,57,21.40
2017,07,16,15,58,21.30
2017,07,16,15,59,21.20
2017,07,16,16,00,21.20
2017,07,16,16,01,21.30
2017,07,16,16,02,21.40
2017,07,16,16,03,21.40
2017,07,16,16,04,21.40
2017,07,16,16,05,21.40
2017,07,16,16,06,21.40
2017,07,16,16,07,21.40
2017,07,16,16,08,21.40
2017,07,16,16,09,21.40
2017,07,16,16,10,21.40
2017,07,16,16,11,21.50
2017,07,16,16,12,21.50
2017,07,16,16,13,21.50
2017,07,16,16,14,21.40
2017,07,16,16,15,21.30
2017,07,16,16,16,21.40
2017,07,16,16,17,21.40
2017,07,16,16,18,21.40
2017,07,16,16,19,21.30
2017,07,16,16,20,21.20
2017,07,16,16,21,21.20
2017,07,16,16,22,21.10
2017,07,16,16,23,21.10
2017,07,16,16,24,21.10
2017,07,16,16,25,21.20
2017,07,16,16,26,21.30
2017,07,16,16,27,21.40
2017,07,16,16,28,21.60
2017,07,16,16,29,21.60
2017,07,16,16,30,21.70
2017,07,16,16,31,21.80
2017,07,16,16,32,21.70
2017,07,16,16,33,21.70
2017,07,16,16,34,21.70
2017,07,16,16,35,21.80
2017,07,16,16,36,21.80
2017,07,16,16,37,21.70
2017,07,16,16,38,21.70
2017,07,16,16,39,21.60
2017,07,16,16,40,21.60
2017,07,16,16,41,21.50
2017,07,16,16,42,21.50
2017,07,16,16,43,21.50
2017,07,16,16,44,21.50
2017,07,16,16,45,21.60
2017,07,16,16,46,21.60
2017,07,16,16,47,21.60
2017,07,16,16,48,21.60
2017,07,16,16,49,21.70
2017,07,16,16,50,21.70
2017,07,16,16,51,21.70
2017,07,16,16,52,21.70
2017,07,16,16,53,21.70
2017,07,16,16,54,21.80
2017,07,16,16,55,21.70
2017,07,16,16,56,21.70
2017,07,16,16,57,21.80
2017,07,16,16,58,21.80
2017,07,16,16,59,21.80
2017,07,16,17,00,21.80
2017,07,16,17,01,21.80
2017,07,16,17,02,21.80
2017,07,16,17,03,21.90
2017,07,16,17,04,22.00
2017,07,16,17,05,22.10
2017,07,16,17,06,22.10
2017,07,16,17,07,22.10
2017,07,16,17,08,22.10
2017,07,16,17,09,22.00
2017,07,16,17,10,21.90
2017,07,16,17,11,21.90
2017,07,16,17,12,22.00
2017,07,16,17,13,22.00
2017,07,16,17,14,22.00
2017,07,16,17,15,21.90
2017,07,16,17,16,21.90
2017,07,16,17,17,21.90
2017,07,16,17,18,21.90
2017,07,16,17,19,21.90